RH
11 11 10 7 3 3 3 4 5 6 7 6 8 8 10 10 20 56 70 95 95 91 87 90 97 84 18
11 10 10 11 8 3 3 3 5 9 9 8 8 9 9 10 12 90 56 72 96 94 86 70 90 98 66
7 9 10 9 10 8 4 3 3 7 9 10 11 11 11 10 17 88 69 87 80 97 96 86 84 91 96
7 7 8 9 8 9 8 4 3 4 6 7 10 12 12 11 10 16 41 70 94 95 96 96 98 93 92
13 8 9 7 8 8 8 7 4 3 4 4 6 11 12 11 10 9 16 53 62 65 85 96 97 98 95
33 18 14 11 8 8 8 8 6 3 3 4 4 7 12 11 10 9 12 84 34 54 71 67 86 96 89
49 40 25 19 13 8 8 7 7 5 3 4 4 4 9 11 10 9 29 97 97 99 89 96 93 94 96
59 46 38 24 20 13 8 7 6 6 4 3 4 4 5 10 10 44 99 95 98 94 95 96 96 97 94
78 67 44 32 22 20 14 7 6 6 5 3 4 3 4 7 10 11 86 93 98 88 92 97 96 98 97
76 81 52 32 27 20 18 10 7 6 6 4 3 3 4 4 6 8 8 9 16 32 43 92 95 98 97
69 71 76 31 28 22 17 16 9 6 7 5 4 3 3 4 5 6 7 8 12 58 38 46 61 64 96
62 67 71 55 31 24 18 16 13 9 8 5 4 3 3 4 4 5 6 7 8 11 10 23 48 47 84
56 58 58 64 40 25 19 16 15 13 9 6 4 4 3 11 18 7 6 8 46 98 87 83 92 93 72
75 54 52 49 52 38 23 19 17 14 10 6 5 4 3 52 88 16 63 10 86 100 100 74 44 48 63
100 67 46 43 40 40 36 26 18 16 13 9 6 5 3 7 37 100 100 13 94 100 75 16 90 98 77
100 100 56 40 37 34 31 32 26 23 18 10 7 5 4 3 43 100 100 60 55 100 100 99 100 69 66
100 100 100 54 34 32 29 25 25 23 20 14 9 5 4 3 4 51 96 89 96 38 82 98 97 98 99
Wind_Speed
63 63 69 81 104 118 120 123 121 119 116 111 106 101 99 93 88 82 82 81 79 78 76 71 59 70 67
68 66 67 69 78 105 120 122 125 126 123 118 114 108 103 98 84 80 87 83 82 81 74 72 80 58 67
65 68 71 70 68 77 105 121 125 128 125 123 117 112 108 104 99 82 82 96 82 83 79 76 79 81 74
70 66 69 74 72 67 76 104 123 128 124 120 119 114 111 108 103 96 95 80 88 76 68 63 79 81 78
61 68 66 71 76 73 68 76 108 124 125 121 119 116 114 111 104 100 91 90 87 88 83 76 60 66 72
43 56 63 66 72 76 75 70 82 115 122 120 118 115 115 113 106 98 94 89 95 99 92 84 83 73 73
38 42 52 64 68 72 76 75 68 80 116 118 117 116 117 114 109 102 96 95 79 81 74 78 84 78 65
36 40 44 55 64 67 71 74 71 67 95 116 115 117 117 117 113 103 96 90 77 96 84 67 69 66 71
30 34 42 48 58 64 64 70 71 67 72 111 108 118 119 118 117 116 114 105 93 79 89 84 77 60 53
28 27 33 46 51 58 61 64 68 69 68 92 98 116 118 118 119 119 120 107 96 102 103 90 76 78 74
25 24 25 35 48 50 56 60 62 65 69 75 88 106 117 118 117 114 108 104 105 98 90 89 89 79 75
22 21 21 26 37 46 50 56 59 62 70 69 76 93 112 113 113 109 106 104 101 95 99 90 84 83 80
20 19 19 23 31 39 46 52 57 61 66 69 70 82 102 104 106 105 105 99 96 91 94 87 70 77 84
19 19 19 20 25 33 42 49 54 57 62 67 67 77 94 105 101 99 101 101 100 91 92 91 89 87 82
20 20 20 20 24 29 34 42 50 54 59 65 68 71 89 106 107 105 112 109 98 87 90 89 87 82 86
19 21 22 22 24 28 33 39 44 49 55 61 64 66 83 100 116 102 97 107 109 90 91 93 94 93 92
20 20 22 25 26 27 31 37 42 46 47 54 60 63 74 94 111 114 104 102 103 99 103 95 87 91 88
Wind_Direction
241 240 241 235 229 224 223 222 222 224 225 226 228 230 231 231 229 229 231 233 233 236 231 232 236 231 230
242 238 239 242 236 228 221 221 220 221 222 223 224 226 228 229 228 225 230 231 233 233 234 232 233 232 230
242 238 236 238 240 236 228 220 219 221 222 222 222 222 223 225 223 224 225 228 229 234 236 232 236 240 232
242 238 235 236 237 237 235 229 218 220 221 220 220 219 220 222 224 224 226 231 227 229 222 228 235 240 243
244 238 234 233 235 234 234 234 226 218 220 219 218 217 218 220 220 224 225 225 227 228 231 229 227 234 240
251 241 234 232 232 232 232 231 231 222 218 218 217 216 216 218 218 220 222 228 227 230 229 230 235 238 239
256 246 237 233 231 231 230 230 229 230 220 217 217 215 215 215 216 215 220 215 223 219 221 225 230 229 229
262 248 243 235 232 230 230 229 227 228 227 216 216 214 215 214 214 210 209 208 217 217 221 222 218 229 232
272 258 242 236 233 230 229 228 226 226 226 220 217 214 214 215 213 214 208 217 214 217 218 224 230 221 231
279 268 251 234 232 231 228 227 224 225 227 225 220 215 214 215 216 217 219 220 221 227 231 229 230 231 235
276 268 255 235 229 227 226 224 223 221 225 225 222 217 213 215 216 219 219 219 219 221 226 225 227 229 231
274 266 257 237 227 224 222 222 220 218 223 223 221 217 214 215 216 218 218 219 221 221 223 226 226 227 229
273 266 257 244 228 222 220 219 219 218 221 221 220 216 214 212 214 215 217 217 213 213 214 218 210 224 226
267 263 253 244 233 226 221 218 218 218 220 221 222 216 213 207 208 213 212 213 211 213 205 213 221 225 224
261 256 250 240 235 227 224 222 219 219 220 220 222 220 212 210 207 206 209 214 212 212 218 220 211 217 224
266 253 248 241 233 231 228 226 223 223 223 222 222 223 213 211 204 208 211 216 219 215 213 213 214 218 222
269 259 249 244 237 233 231 228 226 225 225 224 225 224 221 211 209 208 209 214 213 214 212 207 207 209 216